Regional Weather Roundup
Issued by NWS Green Bay, WI

Home | Current Version | Previous Version | Text Only | Print | Product List | Glossary On
Versions: 1 2 3 4 5 6 7 8 9 10 11 12 13 14 15 16 17 18 19 20 21 22 23 24 25 26 27 28 29 30 31 32 33 34 35 36 37 38 39 40 41 42 43 44 45 46 47 48 49 50
000
ASUS43 KGRB 290811
RWRGRB

NORTH-CENTRAL AND NORTHEAST WISCONSIN REGIONAL WEATHER ROUNDUP
NATIONAL WEATHER SERVICE GREEN BAY WI
300 AM CDT MON AUG 29 2016

WIZ005-009-010>012-018-019-290900-
NORTH CENTRAL WISCONSIN

CITY           SKY/WX    TMP DP  RH WIND       PRES   REMARKS
IRONWOOD       CLOUDY    66  63  90 S7        30.19S
MANITOWISH WTR CLOUDY    61  61 100 S5        30.22F
ARBOR VITAE    CLOUDY    63  61  95 S3        30.23S
EAGLE RIVER    CLOUDY    60  60 100 S3        30.24R
LAND O LAKES   CLOUDY    54  54 100 CALM      30.25R
RHINELANDER    CLOUDY    61  61 100 CALM      30.26R
PHILLIPS       CLOUDY    64  63  98 CALM      30.22R
ANTIGO         MOCLDY    61  61 100 CALM      30.27R
TOMAHAWK       FOG       59  58  97 CALM      30.24S VSB 3/4
MERRILL        CLOUDY    57  57 100 CALM      30.25R FOG
$$

WIZ013-073-290900-
NORTHEAST WISCONSIN

CITY           SKY/WX    TMP DP  RH WIND       PRES   REMARKS
IRON MOUNTAIN  CLOUDY    61  60  97 SE3       30.24R FOG
MARINETTE      CLEAR    N/A N/A N/A CALM      30.25R HAZE
OCONTO         PTCLDY    58  57  97 CALM      30.23R
$$

WIZ017-030-035>037-045-290900-
CENTRAL WISCONSIN

CITY           SKY/WX    TMP DP  RH WIND       PRES   REMARKS
MEDFORD        CLOUDY    64  64 100 CALM      30.23R
WAUSAU         CLOUDY    64  63  96 E6        30.23R
MOSINEE        CLOUDY    63  63 100 SE5       30.24S
MARSHFIELD     PTCLDY    67  63  87 S6        30.22R
WISC RAPIDS    CLOUDY    68  67  96 SE5       30.24R
STEVENS POINT  CLOUDY    62  61  99 SE3       30.23S
WAUPACA        CLOUDY    67  67  99 CALM      30.23S
SHAWANO        CLOUDY    67  64  88 S3        30.25R
CLINTONVILLE   CLOUDY    63  63 100 CALM      30.24R FOG
WAUTOMA        CLOUDY    65  64  97 CALM      30.23S
$$

WIZ038-039-048-051-290900-
FOX VALLEY

CITY           SKY/WX    TMP DP  RH WIND       PRES   REMARKS
NWS GREEN BAY  PTCLDY    61  61 100 CALM      30.24S
APPLETON       CLOUDY    66  64  94 S3        30.22F
OSHKOSH        CLOUDY    66  63  90 E3        30.23S
FOND DU LAC    CLOUDY    67  64  90 S6        30.23F
$$

WIZ022-050-052-290900-
EAST CENTRAL WISCONSIN

CITY           SKY/WX    TMP DP  RH WIND       PRES   REMARKS
EPHRAIM        FAIR      61  61 100 CALM      30.24S
WASHINGTON ISL NOT AVBL
STURGEON BAY   CLEAR     61  61 100 CALM      30.25S FOG
MANITOWOC      CLOUDY    59  57  94 W5        30.25S FOG
SHEBOYGAN      CLEAR     60  59  96 CALM      30.24S FOG
$$

LMZ563-521-522-541>543-290900-
LAKESHORE

STATION/POSITION TIME  TEMP    WIND        PRES    VSBY  WAVE
                       AIR SEA DIR/SP/G                  HT/PER
                 (UTC) (F)     (DEG/KT/KT) (MB)    (MI)  (FT/S)
SHEBOYGAN LKSHOR 0800   63      30/  4/  5 1023.6R
KEWAUNEE LKSHORE 0700   60     300/  2/  3 1023.2F
NORTHPORT PIER   0700   66     180/  2/  4 1023.7S
N MID LAKE BUOY  0750   70 71  130/  8/  8 1023.7R         0
CHAMBERS ISLAND  0740   62        CALM     1023.7F
MENOMINEE LKSHOR 0700   67      CALM  /  2 1023.0R
$$




USA.gov is the U.S. government's official web portal to all federal, state and local government web resources and services.